Flag for Germany Weather past 2 weeks in Bad Hersfeld, Hesse, Germany

Now
28 °F

Passing clouds.


Feels Like: 28 °F
Forecast: 17 / 36 °F
Wind: 2 mph from Northeast

Location: Fritzlar Airport

Current Time: Dec 28, 2014 at 6:23:43 PM

Latest Report: Dec 28, 2014 at 5:20 PM


Visibility: N/A

Pressure: 30.36 "Hg

Humidity: 74%

Dew point: 21 °F

Location of Bad HersfeldLocation

Historic Weather in Bad Hersfeld — Graph

°F

Bad Hersfeld temperature yesterday

Maximum temperature yesterday: 34 °F (at 10:20 AM)
Minimum temperature yesterday: 27 °F (at 12:20 AM)
Average temperature yesterday: 30 °F

Past Weeks' High & Low Weather Summary

 TemperatureHumidityPressure
High55 °F (Dec 18, 8:20 PM)100% (Dec 13, 5:20 PM)30.36 "Hg (Dec 13, 5:20 PM)
Low21 °F (Dec 28, 6:20 AM)47% (Dec 28, 1:20 PM)29.53 "Hg (Dec 27, 1:20 PM)
Average40 °F84%30.00 "Hg
* Reported Dec 13 4:20 PM — Dec 28 4:20 PM, Bad Hersfeld, Weather by CustomWeather, © 2014

Note: Actual official high and low records may vary slightly from our data, if they occured in-between our weather recording intervals... More about our weather records

Advertising

Bad Hersfeld weather history for previous 24 hours

 ConditionsComfort  
Time TempWeatherWind HumidityBarometerVisibility
4:20 PM
Dec 28
28 °FPassing clouds.1 mph69%30.33 "HgN/A
3:20 PM28 °FPassing clouds.8 mph59%30.30 "HgN/A
2:20 PM28 °FPassing clouds.9 mph59%30.27 "HgN/A
1:20 PM28 °FPassing clouds.8 mph47%30.24 "HgN/A
12:20 PM27 °FPassing clouds.10 mph50%30.24 "HgN/A
11:20 AM25 °FPassing clouds.7 mph54%30.21 "HgN/A
10:20 AM23 °FPassing clouds.5 mph63%30.18 "HgN/A
9:20 AM21 °FPassing clouds.7 mph68%30.12 "HgN/A
8:20 AM21 °FPassing clouds.9 mph68%30.09 "HgN/A
7:20 AM21 °FPassing clouds.7 mph68%30.04 "HgN/A
6:20 AM21 °FCold.12 mph68%29.98 "HgN/A
5:20 AM23 °FCold.12 mph68%29.92 "HgN/A
4:20 AM25 °FPassing clouds.12 mph69%29.89 "HgN/A
3:20 AM25 °FPartly cloudy.10 mph69%29.86 "HgN/A
2:20 AM27 °FPassing clouds.9 mph69%29.80 "HgN/A
1:20 AM27 °FPassing clouds.10 mph69%29.77 "HgN/A
12:20 AM27 °FPassing clouds.8 mph69%29.74 "HgN/A
11:20 PM
Dec 27
28 °FPassing clouds.9 mph64%29.71 "HgN/A
10:20 PM28 °FPassing clouds.12 mph69%29.68 "HgN/A
9:20 PM28 °FPartly cloudy.8 mph69%29.65 "HgN/A
8:20 PM30 °FPartly cloudy.9 mph64%29.62 "HgN/A
7:20 PM30 °FPassing clouds.10 mph64%29.59 "HgN/A
6:20 PM30 °FPartly cloudy.9 mph64%29.56 "HgN/A
Weather by CustomWeather, © 2014

See weather overviewHow to use our weather pages